Location: LDNL
(36.4545°S, 141.6685°E)
Time: 12:42:36
(UTC+10:00)

Vanguard 3 - Pass Details

Date: 27 January 2022
Orbit: 508 x 3258 km, 33.3° (Epoch: 25 May)

Event Time Altitude Azimuth Distance (km) Brightness Sun altitude
Rises 22:22:14 0° 356° (N) 3,301 - -17.1°
Reaches altitude 10° 22:26:02 10° 25° (NNE) 2,793 - -17.6°
Maximum altitude 22:28:53 13° 50° (NE) 2,916 - -18.1°
Drops below altitude 10° 22:32:19 10° 74° (ENE) 3,534 - -18.6°
Sets 22:38:41 0° 97° (E) 5,253 - -19.5°
